Preview of NWS' New Version of Forecast
This preview is not operational and should not be used for support decisions.

Regional Weather Roundup (RWR)

Issued by National Weather Service (NWS)

                            
000
ASUS42 KTBW 180216
RWRFL 
FLORIDA REGIONAL WEATHER ROUNDUP
NATIONAL WEATHER SERVICE TAMPA BAY RUSKIN FL
1000 PM EDT FRI MAY 17 2019

NOTE: "FAIR" INDICATES FEW OR NO CLOUDS BELOW 12,000 FEET WITH NO
SIGNIFICANT WEATHER AND/OR OBSTRUCTIONS TO VISIBILITY.

FLZ001>010-012>015-112-114-115-180300-
PANHANDLE FLORIDA
  
CITY           SKY/WX    TMP DP  RH WIND       PRES   REMARKS
PENSACOLA      FAIR      73  70  90 S6        29.99R                  
PENSACOLA NAS  FAIR      76  70  82 S9        29.98R                  
MILTON NAS     FAIR      72  67  84 SE3       29.99S                  
CRESTVIEW      FAIR      75  63  66 S3        30.01R                  
DUKE FIELD     FAIR      73  65  76 S5        30.00R                  
VALPARAISO     FAIR      75  67  76 W3        29.99R                  
PANAMA CITY    FAIR      74  68  81 CALM      29.99R                  
APALACHICOLA   FAIR      76  70  82 SW5       30.00R                  

STATION/POSITION SKY/WX   TEMP    WIND        PRES    WAVE   SWELL
                          AIR SEA DIR/SP/G            HT/PER HT/PER
                          (F)     (DEG/KT/KT) (MB)    (FT/S) (FT/S)
30.1N   87.6W                                   N/A     2/ 8
29.2N   88.2W                     120/ 12/ 14 1014.9S   2/ 5   2/ 9
PANAMA CITY BEAC           77 79  210/  5/  6 1016.1S
TOWER C          NOT AVBL

$$
FLZ011-016>038-118-127-128-134-139-239-180300-
NORTH FLORIDA
  
CITY           SKY/WX    TMP DP  RH WIND       PRES   REMARKS
MARIANNA       FAIR      77  66  68 SW6       29.99R                  
TALLAHASSEE    FAIR      74  71  91 CALM      30.00R                  
PERRY          FAIR      72  71  96 CALM      30.01S                  
LIVE OAK       MOCLDY    75  68  78 CALM      30.00R                  
CROSS CITY     FAIR      72  67  85 CALM      30.01R                  
GAINESVILLE    FAIR      76  64  66 E3        30.04R                  
WILLISTON      FAIR      71  65  81 CALM      30.02R                  
PALATKA        FAIR     N/A N/A N/A SE7       30.02R                  
MAYPORT NAS      N/A    N/A N/A N/A MISG      30.01R                  
JACKSONVILLE   FAIR      75  59  57 SE9       30.00R                  
JAX NAS        FAIR      80  59  48 SE13      30.02R                  
JAX CECIL      CLEAR     75  61  60 S6        30.01R                  
FERNANDINA BEA FAIR      76  65  68 S9        30.01R                  
ST AUGUSTINE   FAIR      75  66  73 S12       30.03R                  
PALM COAST     FAIR      72  64  74 SE5       30.03R                  

STATION/POSITION SKY/WX   TEMP    WIND        PRES    WAVE   SWELL
                          AIR SEA DIR/SP/G            HT/PER HT/PER
                          (F)     (DEG/KT/KT) (MB)    (FT/S) (FT/S)
SHELL POINT      NOT AVBL
KEATON BEACH               78     240/  5/  5 1016.3R
CEDAR KEY                  77      20/  3/  4 1016.3R
FERNANDINA                 79 79  160/  7/  9 1016.8R
30.7N   81.3W                 78                N/A     3/ 4   2/15
MAYPORT                    77 79  180/  5/  9 1016.6R
31.4N   80.9W              77 76  190/ 16/ 21 1015.4R   3/ 5   2/15
ST AUGUSTINE               77 80  160/ 18/ 20 1016.7R

$$
FLZ040-043>046-052-053-057-058-063-144-180300-
INTERIOR CENTRAL FLORIDA
  
CITY           SKY/WX    TMP DP  RH WIND       PRES   REMARKS
OCALA          FAIR      76  61  59 W3        30.03R                  
LEESBURG       FAIR      77  58  51 SE10      30.02S                  
SANFORD        FAIR      74  63  68 SE8       30.03R                  
ORLANDO EXEC   FAIR      74  62  66 SE8       30.03S                  
ORLANDO INTL   FAIR      74  62  66 SE9       30.04R                  
KISSIMMEE      FAIR      75  64  68 E8        30.04S                  
WINTER HAVEN   FAIR      77  60  55 E10       30.04R                  
LAKELAND       CLEAR     75  59  57 SE7       30.03R                  
BARTOW         FAIR      73  59  60 E7        30.02R                  
SEBRING        FAIR      72  61  69 E6        30.04R                  
OKEECHOBEE     FAIR      68  63  83 CALM      30.03R                  

$$
FLZ041-047-054-059-064-141-147-180300-
EAST CENTRAL FLORIDA
  
CITY           SKY/WX    TMP DP  RH WIND       PRES   REMARKS
DAYTONA BEACH  FAIR      74  67  78 SE3       30.04R                  
DELAND         FAIR      73  63  68 SE8       30.03R                  
NEW SMYRNA BEA CLEAR     73  64  73 S9        30.05R                  
JFK SPACE CTR  FAIR      72  65  79 SE3       30.03                   
CAPE CANAVERAL FAIR      69  58  68 SE6       30.03                   
PATRICK AFB    FAIR      75  66  72 SE8       30.04R                  
MELBOURNE      FAIR      77  64  64 SE6       30.04R                  
VERO BEACH     FAIR      74  64  71 E8        30.03S                  
FT PIERCE      FAIR      69  63  81 E5        30.03S                  
STUART         FAIR      75  61  60 E7        30.04R                  

STATION/POSITION SKY/WX   TEMP    WIND        PRES    WAVE   SWELL
                          AIR SEA DIR/SP/G            HT/PER HT/PER
                          (F)     (DEG/KT/KT) (MB)    (FT/S) (FT/S)
28.5N   80.2W              77     120/  6/ 10 1017.7
28.9N   78.5W              75 79  100/  6/  8 1018.5R   2/15   2/15
TRIDENT PIER               74 81  110/  5/  8 1018.5S
28.4N   80.5W                 79                N/A     2/14   2/14
27.5N   80.2W                 78                N/A     3/ 9   2/11

$$
FLZ050-056-061-142-242-148-248-149-249-151-251-155-255-
160-260-180300-
WEST CENTRAL FLORIDA
  
CITY           SKY/WX    TMP DP  RH WIND       PRES   REMARKS
CRYSTAL RIVER  FAIR      72  66  83 CALM      30.02R                  
INVERNESS      FAIR      73  64  73 CALM      30.02R                  
BROOKSVILLE    FAIR      76  61  59 CALM      30.02R                  
CLEARWATER AIR FAIR      79  63  57 CALM      30.01R                  
ST PETE CLEARW FAIR      79  65  62 CALM      30.00R                  
TAMPA INTL     FAIR      82  56  40 SE8       30.01R                  
TAMPA EXEC     FAIR      70  61  73 CALM      30.02R                  
PLANT CITY     FAIR      77  59  53 E5        30.04R                  
PETER O KNIGHT CLOUDY    81  59  47 E7        30.01R                  
ST PETERSBURG    N/A     83  63  50 SE17      29.99R                  
SARASOTA       FAIR      80  59  48 SE12      29.99R                  
VENICE         FAIR      79  63  57 E9        30.01R                  

STATION/POSITION SKY/WX   TEMP    WIND        PRES    WAVE   SWELL
                          AIR SEA DIR/SP/G            HT/PER HT/PER
                          (F)     (DEG/KT/KT) (MB)    (FT/S) (FT/S)
27.3N   84.2W                 77                N/A     2/ 5
CLEARWATER BEACH           80 83   10/  5/  6 1016.1R
MIDDLE TAMPA BAY           81     120/ 10/ 11 1016.0R
VENICE                     80 81  100/  7/  9 1016.0R

$$
FLZ066-069-070-075>078-162-262-165-265-180300-
SOUTHWEST FLORIDA AND KEYS
  
CITY           SKY/WX    TMP DP  RH WIND       PRES   REMARKS
PUNTA GORDA    FAIR      76  62  62 E9        30.03R                  
FT MYERS       FAIR      76  63  64 E9        30.00R                  
SOUTHWEST INTL FAIR      77  61  57 E8        30.01R                  
NAPLES         FAIR      78  64  61 E10       30.00R                  
MARCO ISLAND   FAIR      77  66  68 E7        30.01R                  
IMMOKALEE      FAIR      72  64  78 E6        30.00R                  
MARATHON       FAIR      82  71  69 E8G18     29.98R                  
KEY WEST NAS   FAIR      81  66  60 E10       29.98R                  
KEY WEST INTL  FAIR      79  66  64 E9        29.98R                  

STATION/POSITION SKY/WX   TEMP    WIND        PRES    WAVE   SWELL
                          AIR SEA DIR/SP/G            HT/PER HT/PER
                          (F)     (DEG/KT/KT) (MB)    (FT/S) (FT/S)
NAPLES                     80 83              1015.8R
DRY TORTUGAS               81      90/ 12/ 13 1014.8R
SAND KEY                   81                 1014.8R
SOMBRERO KEY               80                 1014.5R

$$
FLZ067-068-071>074-168-172>174-180300-
SOUTHEAST FLORIDA 
  
CITY           SKY/WX    TMP DP  RH WIND       PRES   REMARKS
W PALM BEACH   FAIR      78  64  61 E8        30.02S                  
BOCA RATON     PTCLDY    77  66  69 E7        30.01S                  
FT LAUDER-EXEC FAIR      77  65  66 E9        30.01R                  
FT LAUDERDALE  FAIR      77  65  66 E8        30.00S                  
POMPANO BEACH  FAIR      78  65  63 E10       30.01S                  
PEMBROKE PINES FAIR      74  65  73 NE7       30.03R                  
OPA LOCKA      FAIR      77  65  66 E6        30.02R                  
MIAMI          FAIR      78  65  63 E8        30.01R                  
WEST KENDALL   FAIR      74  64  71 E6        30.00R                  
HOMESTEAD      FAIR      76  66  71 NE7       29.99                   

STATION/POSITION SKY/WX   TEMP    WIND        PRES    WAVE   SWELL
                          AIR SEA DIR/SP/G            HT/PER HT/PER
                          (F)     (DEG/KT/KT) (MB)    (FT/S) (FT/S)
PORT EVERGLADES            78      60/ 10/ 14 1016.0
VIRGINIA KEY               79 82   50/ 10/ 12 1015.5R
LAKE WORTH                 78 82              1017.4S
SETTLEMENT POINT           78      80/ 11/ 12 1016.7S

$$